Home > Weather > Stavanger > Past weeks

Flag for Norway Past Weather in Stavanger, Norway — Yesterday and Last 2 Weeks

Now
46 °F

Fog.


Feels Like: 46 °F
Forecast: 49 / 58 °F
Wind: 2 mph from North

Location: Stavanger / Sola

Current Time: May 27, 2016 at 8:49:03 AM

Latest Report: May 27, 2016 at 8:20 AM


Visibility: 0 mi

Pressure: 30.15 "Hg

Humidity: 100%

Dew Point: 46 °F

Location of StavangerLocation

Past Weather in Stavanger — Graph

°F

Stavanger Temperature Yesterday

Maximum temperature yesterday: 63 °F (at 10:50 AM)
Minimum temperature yesterday: 46 °F (at 4:50 AM)
Average temperature yesterday: 56 °F

High & Low Weather Summary for the Past Weeks

 TemperatureHumidityPressure
High68 °F (May 25, 3:20 PM)100% (May 19, 12:50 AM)30.15 "Hg (May 19, 12:50 AM)
Low43 °F (May 13, 3:50 AM)37% (May 25, 2:50 PM)29.62 "Hg (May 20, 9:50 AM)
Average52 °F77%29.86 "Hg
* Reported May 12 7:20 AM — May 27 7:50 AM, Stavanger, Weather by CustomWeather, © 2016

Note: Actual official high and low records may vary slightly from our data, if they occured in-between our weather recording intervals... More about our weather records

Advertising

Stavanger Weather History for the Previous 24 Hours

Scroll right to see more
 ConditionsComfort  
Time TempWeatherWind HumidityBarometerVisibility
7:50 AM
Fri, May 27
46 °FFog.2 mph100%30.15 "Hg0 mi
7:20 AM46 °FFog.5 mph100%30.12 "Hg0 mi
6:50 AM46 °FFog.2 mph100%30.12 "Hg0 mi
6:20 AM46 °FFog.2 mph100%30.12 "Hg0 mi
5:50 AM46 °FFog.No wind100%30.12 "Hg0 mi
4:50 AM48 °FFog.3 mph94%30.12 "Hg0 mi
3:50 AM46 °FFog.3 mph100%30.12 "Hg0 mi
2:50 AM46 °FFog.5 mph100%30.12 "Hg0 mi
1:50 AM46 °FFog.5 mph100%30.12 "Hg0 mi
12:50 AM50 °FLight fog.1 mph94%30.12 "Hg6 mi
12:20 AM48 °FLight fog.2 mph94%30.12 "Hg6 mi
11:50 PM
Thu, May 26
50 °FClear.3 mph94%30.12 "Hg10 mi
11:20 PM50 °FSunny.3 mph94%30.12 "Hg10 mi
10:50 PM52 °FSunny.5 mph88%30.12 "Hg10 mi
10:20 PM52 °FSunny.6 mph88%30.12 "Hg10 mi
9:50 PM54 °FSunny.5 mph82%30.12 "Hg10 mi
9:20 PM55 °FSunny.5 mph72%30.12 "Hg10 mi
8:50 PM55 °FSunny.7 mph72%30.09 "Hg10 mi
8:20 PM55 °FSunny.7 mph67%30.12 "Hg10 mi
7:50 PM57 °FSunny.8 mph63%30.12 "Hg10 mi
7:20 PM57 °FSunny.10 mph63%30.09 "Hg10 mi
6:50 PM59 °FSunny.9 mph59%30.09 "Hg10 mi
6:20 PM59 °FSunny.9 mph59%30.12 "Hg10 mi
5:50 PM59 °FSunny.10 mph63%30.12 "Hg10 mi
5:20 PM59 °FSunny.10 mph59%30.12 "Hg10 mi
4:50 PM59 °FSunny.10 mph55%30.12 "Hg10 mi
4:20 PM59 °FSunny.10 mph55%30.12 "Hg10 mi
3:50 PM59 °FSunny.10 mph55%30.12 "Hg10 mi
3:20 PM61 °FSunny.10 mph52%30.12 "Hg10 mi
2:50 PM61 °FSunny.10 mph52%30.12 "Hg10 mi
2:20 PM61 °FPassing clouds.12 mph48%30.12 "HgN/A
1:50 PM61 °FPassing clouds.12 mph48%30.12 "HgN/A
1:20 PM61 °FPassing clouds.12 mph52%30.12 "HgN/A
12:50 PM61 °FPassing clouds.9 mph48%30.12 "HgN/A
12:20 PM61 °FPassing clouds.10 mph52%30.12 "HgN/A
11:50 AM61 °FPassing clouds.9 mph55%30.12 "HgN/A
11:20 AM61 °FPassing clouds.8 mph52%30.12 "HgN/A
10:50 AM63 °FSunny.No wind49%30.12 "Hg10 mi
10:20 AM61 °FSunny.No wind52%30.12 "Hg10 mi
9:50 AM59 °FSunny.5 mph59%30.12 "Hg10 mi
9:20 AM59 °FSunny.5 mph59%30.12 "Hg10 mi
8:50 AM57 °FSunny.3 mph67%30.12 "Hg10 mi
8:20 AM55 °FSunny.3 mph72%30.12 "Hg10 mi
Weather by CustomWeather, © 2016

See weather overviewHow to use our weather pages